Regional Weather Roundup
Issued by NWS Green Bay, WI

Home | Current Version | Previous Version | Graphics & Text | Print | Product List | Glossary Off
Versions: 1 2 3 4 5 6 7 8 9 10 11 12 13 14 15 16 17 18 19 20 21 22 23 24 25 26 27 28 29 30 31 32 33 34 35 36 37 38 39 40 41 42 43 44 45 46 47 48 49 50

183
ASUS43 KGRB 300611
RWRGRB

NORTH-CENTRAL AND NORTHEAST WISCONSIN REGIONAL WEATHER ROUNDUP
NATIONAL WEATHER SERVICE GREEN BAY WI
100 AM CDT SUN APR 30 2017

WIZ005-009-010>012-018-019-300700-
NORTH CENTRAL WISCONSIN

CITY           SKY/WX    TMP DP  RH WIND       PRES   REMARKS
IRONWOOD       CLOUDY    35  20  54 E7        30.27F
MANITOWISH WTR CLOUDY    36  23  59 NE6       30.22F
ARBOR VITAE    CLOUDY    39  22  49 NE5       30.20F
EAGLE RIVER    CLOUDY    37  17  44 NE8       30.21F
LAND O LAKES   CLOUDY    36  20  52 NE6       30.25S
RHINELANDER    CLOUDY    40  19  43 NE9       30.19F
PHILLIPS       MOCLDY    38  22  51 NE10      30.20F
ANTIGO         CLOUDY    37  21  52 E17       30.18F
TOMAHAWK       CLOUDY    40  20  45 NE9       30.19F
MERRILL        CLOUDY    41  19  39 E12G23    30.18F
$$

WIZ013-073-300700-
NORTHEAST WISCONSIN

CITY           SKY/WX    TMP DP  RH WIND       PRES   REMARKS
IRON MOUNTAIN  CLOUDY    37  19  48 N10       30.23F
MARINETTE      CLOUDY    40  27  59 NE17      30.20F
OCONTO         CLOUDY    40  28  60 NE12      30.19R
$$

WIZ017-030-035>037-045-300700-
CENTRAL WISCONSIN

CITY           SKY/WX    TMP DP  RH WIND       PRES   REMARKS
MEDFORD        CLOUDY    41  21  44 NE12G17   30.15F
WAUSAU         CLOUDY    42  17  36 NE12      30.16S
MOSINEE        CLOUDY    41  19  42 NE12G20   30.17F
MARSHFIELD     CLOUDY    43  23  45 NE9       30.13F
WISC RAPIDS    CLOUDY    44  22  41 E14       30.16F
STEVENS POINT  CLOUDY    41  21  44 NE14G20   30.16S
WAUPACA        CLOUDY    45  26  47 NE13      30.16S
SHAWANO        CLOUDY    43  27  51 NE9       30.18R
CLINTONVILLE   CLOUDY    41  23  48 NE15      30.17R
WAUTOMA        CLOUDY    44  29  55 E9        30.17R
$$

WIZ038-039-048-051-300700-
FOX VALLEY

CITY           SKY/WX    TMP DP  RH WIND       PRES   REMARKS
NWS GREEN BAY  CLOUDY    42  34  73 NE23G30   30.16F
APPLETON       CLOUDY    41  30  65 NE12G20   30.14R
OSHKOSH        LGT RAIN  40  33  76 E14G24    30.15R
FOND DU LAC    LGT RAIN  39  32  76 NE10      30.16R
$$

WIZ022-050-052-300700-
EAST CENTRAL WISCONSIN

CITY           SKY/WX    TMP DP  RH WIND       PRES   REMARKS
EPHRAIM        CLOUDY    39  28  63 NE12      30.17F
WASHINGTON ISL CLOUDY    38  28  67 NE10      30.20F
STURGEON BAY   CLOUDY    41  28  60 NE13      30.16F
MANITOWOC      CLOUDY    41  34  76 NE12G20   30.14S
SHEBOYGAN      LGT RAIN  39  36  89 NE13      30.15R FOG
$$

LMZ563-521-522-541>543-300700-
LAKESHORE

STATION/POSITION TIME  TEMP    WIND        PRES    VSBY  WAVE
                       AIR SEA DIR/SP/G                  HT/PER
                 (UTC) (F)     (DEG/KT/KT) (MB)    (MI)  (FT/S)
SHEBOYGAN LKSHOR 0600   40      20/ 15/ 18 1021.4R
KEWAUNEE LKSHORE 0548   41      40/ 16/ 23 1020.6R
NORTHPORT PIER   0540   40      40/ 13/ 17 1022.7F
N MID LAKE BUOY  0550   38 37   50/ 19/ 21 1023.3F         3/ 4
CHAMBERS ISLAND  0540   39      10/ 20/ 22 1022.0F
MENOMINEE LKSHOR 0548   40      30/ 25/ 30 1020.9F
$$




USA.gov is the U.S. government's official web portal to all federal, state and local government web resources and services.